Regional Weather Roundup
Issued by NWS

Home | Current Version | Previous Version | Graphics & Text | Print | Product List | Glossary On
Versions: 1 2 3 4 5 6 7 8 9 10 11 12 13 14 15 16 17 18 19 20 21 22 23 24 25 26 27 28 29 30 31 32 33 34 35 36 37 38 39 40 41 42 43 44 45 46 47 48 49 50
000
ASUS45 KSLC 282210
RWRUT

UTAH REGIONAL WEATHER ROUNDUP
NATIONAL WEATHER SERVICE SALT LAKE CITY UT
400 PM MDT THU AUG 28 2014

UTZ001>011-023>025-282300-

NORTHERN UTAH

CITY           SKY/WX    TMP DP  RH WIND       PRES   REMARKS
HILL AFB       SUNNY     80  46  29 SW6       30.18F
LOGAN          SUNNY     80  50  34 CALM      30.15F
OGDEN          SUNNY     81  44  27 NW7       30.15F
PROVO AIRPORT  MOSUNNY   77  46  33 VRB3      30.19F
SALT LAKE CITY MOSUNNY   84  37  18 VRB5      30.13F
VERNAL         MOSUNNY   72  51  47 SW6       30.19F
WENDOVER       SUNNY     84  41  21 S6        30.13F
HEBER CITY     MOSUNNY   77  45  31 W5        30.22F
WEST JORDAN    SUNNY     82  52  34 CALM      30.17F

$$

UTZ012>022-026-027-282300-

SOUTHERN UTAH

CITY           SKY/WX    TMP DP  RH WIND       PRES   REMARKS
BRYCE CANYON   PTSUNNY   73  39  29 CALM      30.34F
CEDAR CITY     SUNNY     82  34  17 VRB5      30.21F
MILFORD        SUNNY     84  34  16 N12G24    30.17F
MOAB/CYNLANDS  SUNNY     82  44  26 SE8       30.12F
PRICE          PTSUNNY   78  38  23 VRB7      30.21F
ST GEORGE      CLEAR     93  45  18 W7        30.02F

$$

REGIONAL REPORTS     COLORADO/ARIZONA

CITY           SKY/WX    TMP DP  RH WIND       PRES   REMARKS
CRAIG, CO      MOSUNNY   71  48  43 W6        30.23F
GRAND JUNCTION PTSUNNY   75  52  44 VRB6      30.17F
RIFLE          PTSUNNY   69  50  50 CALM      30.20F
MONTROSE       MOSUNNY   72  48  42 W6        30.25F
CORTEZ         SUNNY     77  45  32 N13G23    30.21F
PAGE, AZ       SUNNY     87  38  17 NE9       30.12F
GRAND CANYON   SUNNY     77  37  23 N7        30.28F
KINGMAN        SUNNY     95  34  11 N8        30.05F HX  90
FLAGSTAFF      MOSUNNY   76  40  27 VRB6      30.30F

$$

REGIONAL REPORTS    NEVADA/IDAHO/WYOMING

CITY           SKY/WX    TMP DP  RH WIND       PRES   REMARKS
LAS VEGAS, NV  SUNNY    101  32   9 VRB3      29.91F HX  95
ELY            SUNNY     82  29  14 N9        30.25F
ELKO           SUNNY     88  28  11 SW8       30.15F
POCATELLO, ID  MOSUNNY   87  37  17 W13G21    30.11F
BURLEY         SUNNY     84  45  25 W5        30.08F
EVANSTON, WY   PTSUNNY   72  44  36 SW7       30.31F
ROCK SPRINGS   MOSUNNY   73  36  25 NW14G23   30.24F

$$


USA.gov is the U.S. government's official web portal to all federal, state and local government web resources and services.